STARLINK-3885 (52463 NORAD) Tracking and Keplerian Element Data
This shows tracking and keplerian element data for the satellite.
Feedback or suggestion? Click here.
Element | Value |
Catalog | 52463 |
Name | STARLINK-3885 |
Epoch Orbit | 1069 |
Epoch Day | 193.25001157 |
Epoch Year | 2022 |
RAAN | 295.5095 |
Inclination | 53.2175 |
Eccentricity | 0.0002879 |
Argument of Perigee | 11.6499 |
Mean Anonmoly | 83.3942 |
Mean Motion | 15.73080736 |
Decay Rate | -0.00965375 |
L1 | 1 52463U 22049N 22193.25001157 -.00965375 00000+0 -76072-2 0 9995 |
L2 | 2 52463 53.2175 295.5095 0002879 11.6499 83.3942 15.73080736 10691 |
Live tracking and technical data element details for STARLINK-3885 (NORAD 52463). STARLINK-3885 can be tracked NOW for your location showing map with azimuth and elevation plus other details from your city location.
Track the satellite on the map from your city or location and see movement details for azimuth, elevation, latitude, longitude, range, height, and movement on the map or in text.
IsCatalogInMostPopularTable: catalog: 52463, numindb: 6
Update: records affected: 1
GetName: 52463 STARLINK-3885
Hit Count: updated at: Sun, 14 Aug 2022 01:38:41 GMT